FW8576 Weather Reports


Display with metric or nautical units.
time (UTC)temp
F
wind
direction
speed
MPH
gust
MPH
rain 1hr
in
rain 24hr
in
rain mn
in
humidity
%
barometer
mb
20260510070945 64 0 0.0 1.0 0.00 0.00 0.00 99 1017.1
20260510070442 64 287 0.0 2.0 0.00 0.00 0.00 98 1017.1
20260510065937 64 270 1.0 2.0 0.00 0.00 0.00 99 1017.2
20260510065435 64 188 0.0 0.0 0.00 0.00 0.00 99 1017.2
20260510064930 64 225 3.0 4.0 0.00 0.00 0.00 99 1017.2
20260510064428 64 200 1.0 2.0 0.00 0.00 0.00 99 1017.1
20260510063925 64 243 0.0 2.0 0.00 0.00 0.00 99 1017.0
20260510063420 64 240 0.0 2.0 0.00 0.00 0.00 99 1017.3
20260510062919 64 243 0.0 1.0 0.00 0.00 0.00 99 1017.1
20260510062414 64 203 1.0 2.0 0.00 0.00 0.00 99 1017.4
20260510061909 64 249 0.0 1.0 0.00 0.00 0.00 98 1017.5
20260510061406 64 252 2.0 2.0 0.00 0.00 0.00 99 1017.5
20260510060902 64 233 0.0 2.0 0.00 0.00 0.00 98 1017.2
20260510060359 64 213 0.0 3.0 0.00 0.00 0.00 99 1017.3
20260510055855 64 262 0.0 1.0 0.00 0.00 0.00 98 1017.4
20260510055355 64 203 2.0 2.0 0.00 0.00 0.00 98 1017.3
20260510054848 64 188 0.0 2.0 0.00 0.00 0.00 98 1017.2
20260510054344 64 352 0.0 0.0 0.00 0.00 0.00 98 1017.2
20260510053839 64 194 0.0 0.0 0.00 0.00 0.00 98 1017.4
20260510053335 64 200 0.0 1.0 0.00 0.00 0.00 98 1017.3
20260510052832 64 203 0.0 1.0 0.00 0.00 0.00 98 1017.6
20260510052327 64 188 0.0 0.0 0.00 0.00 0.00 98 1017.5
20260510051824 64 188 0.0 0.0 0.00 0.00 0.00 98 1017.4
20260510051321 65 203 0.0 1.0 0.00 0.00 0.00 97 1018.0
20260510050818 65 262 0.0 0.0 0.00 0.00 0.00 97 1017.7
20260510050314 65 243 0.0 1.0 0.00 0.00 0.00 97 1017.6
20260510045811 64 90 0.0 0.0 0.00 0.00 0.00 97 1017.9
20260510045308 65 157 0.0 1.0 0.00 0.00 0.00 97 1017.8
20260510044805 65 98 0.0 0.0 0.00 0.00 0.00 96 1017.9
20260510044302 65 98 0.0 0.0 0.00 0.00 0.00 96 1017.8
20260510043758 65 98 0.0 0.0 0.00 0.00 0.00 96 1017.6
20260510043254 65 157 0.0 0.0 0.00 0.00 0.00 96 1017.5
20260510042752 65 270 0.0 0.0 0.00 0.00 0.00 96 1017.6
20260510042247 66 255 0.0 1.0 0.00 0.00 0.00 96 1017.8
20260510041744 66 261 0.0 2.0 0.00 0.00 0.00 96 1017.6
20260510041242 66 262 1.0 3.0 0.00 0.00 0.00 96 1017.6
20260510040739 66 254 1.0 2.0 0.00 0.00 0.00 96 1017.6
20260510040236 66 294 2.0 2.0 0.00 0.00 0.00 96 1017.6
20260510035731 66 241 2.0 3.0 0.00 0.00 0.00 96 1017.7
20260510035227 66 264 0.0 4.0 0.00 0.00 0.00 96 1017.5
20260510034723 66 180 0.0 2.0 0.00 0.00 0.00 95 1017.4
20260510034221 66 221 2.0 3.0 0.00 0.00 0.00 95 1017.5
20260510033717 66 294 1.0 5.0 0.00 0.00 0.00 95 1017.7
20260510033215 66 300 0.0 3.0 0.00 0.00 0.00 95 1017.7
20260510032711 66 194 0.0 2.0 0.00 0.00 0.00 95 1017.6
20260510032207 66 254 0.0 0.0 0.00 0.00 0.00 95 1017.3
20260510031701 66 209 0.0 1.0 0.00 0.00 0.00 95 1017.5
20260510031158 66 254 0.0 1.0 0.00 0.00 0.00 94 1017.5
20260510030652 67 246 0.0 1.0 0.00 0.00 0.00 94 1017.6
20260510030150 66 243 0.0 3.0 0.00 0.00 0.00 94 1017.4
20260510025647 67 240 1.0 2.0 0.00 0.00 0.00 94 1017.4
20260510025144 67 270 0.0 3.0 0.00 0.00 0.00 93 1017.4
20260510024642 67 270 0.0 0.0 0.00 0.00 0.00 93 1017.3
20260510024138 67 291 1.0 2.0 0.00 0.00 0.00 93 1017.4
20260510023634 67 264 0.0 2.0 0.00 0.00 0.00 93 1017.3
20260510023131 67 254 0.0 2.0 0.00 0.00 0.00 93 1017.3
20260510022631 67 245 2.0 4.0 0.00 0.00 0.00 92 1017.3
20260510022126 67 259 3.0 4.0 0.00 0.00 0.00 93 1017.4
20260510021622 67 227 0.0 3.0 0.00 0.00 0.00 93 1017.1
20260510021120 67 254 1.0 3.0 0.00 0.00 0.00 93 1017.4
20260510020614 67 254 2.0 3.0 0.00 0.00 0.00 93 1017.3
20260510020110 67 261 0.0 2.0 0.00 0.00 0.00 92 1017.5
20260510015606 67 264 0.0 3.0 0.00 0.00 0.00 92 1017.5
20260510015102 67 270 0.0 1.0 0.00 0.00 0.00 92 1017.6
20260510014558 68 246 0.0 2.0 0.00 0.00 0.00 92 1017.2
20260510014056 68 285 0.0 0.0 0.00 0.00 0.00 91 1017.4
20260510013555 68 262 0.0 3.0 0.00 0.00 0.00 91 1017.2
20260510013052 68 180 0.0 2.0 0.00 0.00 0.00 91 1016.9
20260510012545 68 270 0.0 2.0 0.00 0.00 0.00 91 1016.8
20260510012042 68 237 0.0 2.0 0.00 0.00 0.00 90 1016.8
20260510011542 69 250 2.0 3.0 0.00 0.00 0.00 90 1016.7
20260510011038 68 253 2.0 3.0 0.00 0.00 0.00 90 1016.6
20260510010535 69 270 0.0 4.0 0.00 0.00 0.00 90 1016.5
20260510010032 69 215 0.0 2.0 0.00 0.00 0.00 90 1016.4
20260510005527 69 233 2.0 2.0 0.00 0.00 0.00 89 1016.6
20260510005025 69 260 2.0 3.0 0.00 0.00 0.00 89 1016.6
20260510004523 69 235 3.0 4.0 0.00 0.00 0.00 89 1016.6
20260510004021 69 270 0.0 3.0 0.00 0.00 0.00 88 1016.4
20260510003517 70 188 0.0 4.0 0.00 0.00 0.00 88 1016.1
20260510003013 70 262 1.0 2.0 0.00 0.00 0.00 88 1016.1
20260510002508 70 270 0.0 3.0 0.00 0.00 0.00 87 1016.0
20260510002005 70 263 0.0 3.0 0.00 0.00 0.00 87 1016.1
20260510001503 70 234 1.0 2.0 0.00 0.00 0.00 87 1015.9
20260510001001 71 245 2.0 4.0 0.00 0.00 0.00 86 1015.8
20260510000456 71 203 3.0 4.0 0.00 0.00 0.00 86 1016.0
20260509235952 71 270 1.0 3.0 0.00 0.00 0.00 86 1015.9
20260509235449 71 201 2.0 5.0 0.00 0.00 0.00 85 1015.8
20260509234945 71 251 1.0 4.0 0.00 0.00 0.00 85 1015.6
20260509234442 71 249 3.0 3.0 0.00 0.00 0.00 85 1015.6
20260509233941 72 208 3.0 5.0 0.00 0.00 0.00 85 1015.7
20260509233438 72 273 4.0 4.0 0.00 0.00 0.00 84 1015.6
20260509232934 72 243 3.0 7.0 0.00 0.00 0.00 84 1015.4
20260509232432 72 283 1.0 5.0 0.00 0.00 0.00 83 1015.5
20260509231927 72 257 2.0 7.0 0.00 0.00 0.00 83 1015.2
20260509231424 72 243 0.0 4.0 0.00 0.00 0.00 83 1015.3
20260509230922 72 272 5.0 7.0 0.00 0.00 0.00 82 1015.5
20260509230419 73 270 2.0 4.0 0.00 0.00 0.00 82 1015.5
20260509225915 73 231 3.0 7.0 0.00 0.00 0.00 81 1015.3
20260509225411 73 227 7.0 7.0 0.00 0.00 0.00 81 1015.4
20260509224908 73 240 3.0 5.0 0.00 0.00 0.00 81 1015.4
20260509224403 73 236 6.0 8.0 0.00 0.00 0.00 81 1015.2
20260509223901 73 262 5.0 8.0 0.00 0.00 0.00 80 1015.5
20260509223357 73 231 3.0 6.0 0.00 0.00 0.00 80 1015.3
20260509222854 73 228 2.0 7.0 0.00 0.00 0.00 80 1015.3
20260509222349 73 266 3.0 6.0 0.00 0.00 0.00 80 1015.4
20260509221844 73 248 2.0 6.0 0.00 0.00 0.00 80 1015.3
20260509221342 74 278 4.0 5.0 0.00 0.00 0.00 79 1015.4
20260509220837 74 286 3.0 5.0 0.00 0.00 0.00 79 1015.2
20260509220333 74 273 4.0 5.0 0.00 0.00 0.00 78 1014.9
20260509215829 74 266 2.0 5.0 0.00 0.00 0.00 78 1015.3
20260509215326 74 281 2.0 3.0 0.00 0.00 0.00 78 1015.0
20260509214823 74 303 3.0 5.0 0.00 0.00 0.00 78 1015.1
20260509214320 74 248 3.0 6.0 0.00 0.00 0.00 77 1015.3
20260509213817 75 235 3.0 4.0 0.00 0.00 0.00 77 1015.3
20260509213312 75 228 2.0 4.0 0.00 0.00 0.00 78 1015.2
20260509212810 75 254 2.0 6.0 0.00 0.00 0.00 77 1015.1
20260509212308 74 222 3.0 4.0 0.00 0.00 0.00 77 1014.9
20260509211803 74 270 2.0 4.0 0.00 0.00 0.00 77 1014.9
20260509211259 74 279 0.0 5.0 0.00 0.00 0.00 77 1014.9
20260509210756 74 253 5.0 5.0 0.00 0.00 0.00 77 1015.0
20260509210254 74 281 2.0 4.0 0.00 0.00 0.00 78 1015.1
20260509205753 75 283 0.0 4.0 0.00 0.00 0.00 76 1015.0
20260509205248 74 234 1.0 5.0 0.00 0.00 0.00 78 1015.1
20260509204744 75 297 2.0 4.0 0.00 0.00 0.00 77 1015.4
20260509204241 74 205 3.0 4.0 0.00 0.00 0.00 77 1015.2
20260509203737 73 251 3.0 6.0 0.00 0.00 0.00 78 1015.5
20260509203235 74 290 5.0 5.0 0.00 0.00 0.00 78 1015.5
20260509202730 73 345 0.0 5.0 0.00 0.00 0.00 78 1015.3
20260509202227 73 240 3.0 5.0 0.00 0.00 0.00 79 1015.4
20260509201721 73 244 4.0 5.0 0.00 0.00 0.00 79 1015.7
20260509201218 73 278 2.0 4.0 0.00 0.00 0.00 79 1015.8
20260509200714 73 265 4.0 7.0 0.00 0.00 0.00 78 1015.8
20260509200209 73 278 3.0 5.0 0.00 0.00 0.00 78 1016.0
20260509195705 74 252 5.0 5.0 0.00 0.00 0.00 78 1015.9
20260509195201 73 245 4.0 7.0 0.00 0.00 0.00 78 1015.7
20260509194655 73 222 3.0 4.0 0.00 0.00 0.00 79 1015.7
20260509194152 73 282 3.0 5.0 0.00 0.00 0.00 78 1016.0
20260509193648 73 233 4.0 7.0 0.00 0.00 0.00 78 1016.0
20260509193144 73 233 4.0 8.0 0.00 0.00 0.00 78 1015.8
20260509192640 74 304 2.0 3.0 0.00 0.00 0.00 77 1016.3
20260509192135 73 255 2.0 8.0 0.00 0.00 0.00 78 1016.2
20260509191629 73 270 2.0 5.0 0.00 0.00 0.00 79 1016.1
20260509191127 73 273 3.0 8.0 0.00 0.00 0.00 79 1016.3
20260509190623 73 299 2.0 7.0 0.00 0.00 0.00 78 1016.3
20260509190120 73 205 5.0 5.0 0.00 0.00 0.00 79 1016.4
20260509185618 73 219 4.0 7.0 0.00 0.00 0.00 78 1016.5
20260509185114 73 231 6.0 7.0 0.00 0.00 0.00 79 1016.3
20260509184612 73 261 0.0 5.0 0.00 0.00 0.00 80 1016.5
20260509184108 73 258 5.0 6.0 0.00 0.00 0.00 80 1016.8
20260509183604 72 199 5.0 6.0 0.00 0.00 0.00 80 1016.7
20260509183100 71 286 2.0 5.0 0.00 0.00 0.00 81 1016.5
20260509182556 72 256 3.0 7.0 0.00 0.00 0.00 81 1016.8
20260509182053 72 225 5.0 5.0 0.00 0.00 0.00 81 1016.7
20260509181552 72 294 2.0 5.0 0.00 0.00 0.00 81 1016.5
20260509181048 71 227 3.0 7.0 0.00 0.00 0.00 81 1016.9
20260509180544 72 263 4.0 6.0 0.00 0.00 0.00 81 1016.5
20260509180042 72 201 3.0 6.0 0.00 0.00 0.00 79 1016.5
20260509175537 72 257 4.0 4.0 0.00 0.00 0.00 79 1016.1
20260509175035 72 235 3.0 7.0 0.00 0.00 0.00 81 1016.4
20260509174531 71 196 7.0 7.0 0.00 0.00 0.00 81 1016.4
20260509174026 71 251 4.0 6.0 0.00 0.00 0.00 82 1016.4
20260509173520 71 187 5.0 5.0 0.00 0.00 0.00 82 1016.6
20260509173017 70 268 7.0 7.0 0.00 0.00 0.00 82 1016.5
20260509172515 70 270 3.0 7.0 0.00 0.00 0.00 82 1016.7
20260509172010 70 299 4.0 6.0 0.00 0.00 0.00 82 1016.8
20260509171506 70 294 5.0 8.0 0.00 0.00 0.00 81 1016.5
20260509171003 71 225 3.0 6.0 0.00 0.00 0.00 81 1016.2
20260509170458 71 255 3.0 5.0 0.00 0.00 0.00 81 1016.4
20260509165954 71 237 3.0 6.0 0.00 0.00 0.00 81 1016.7
20260509165453 71 225 2.0 5.0 0.00 0.00 0.00 80 1016.5
20260509164949 71 236 2.0 4.0 0.00 0.00 0.00 79 1016.6
20260509164445 71 252 5.0 7.0 0.00 0.00 0.00 80 1016.4
20260509163941 71 297 2.0 6.0 0.00 0.00 0.00 80 1016.5
20260509163439 71 284 3.0 7.0 0.00 0.00 0.00 80 1016.5
20260509162937 71 233 4.0 7.0 0.00 0.00 0.00 79 1016.8
20260509162437 72 275 2.0 7.0 0.00 0.00 0.00 79 1016.6
20260509161932 71 283 5.0 9.0 0.00 0.00 0.00 79 1016.8
20260509161429 71 251 7.0 8.0 0.00 0.00 0.00 81 1016.9
20260509160924 70 228 6.0 6.0 0.00 0.00 0.00 81 1016.6
20260509160420 70 228 4.0 6.0 0.00 0.00 0.00 81 1016.8
20260509155915 71 274 2.0 6.0 0.00 0.00 0.00 82 1016.6
20260509155412 70 233 2.0 7.0 0.00 0.00 0.00 81 1016.9
20260509154909 70 213 4.0 7.0 0.00 0.00 0.00 82 1016.9
20260509154405 70 237 5.0 9.0 0.00 0.00 0.00 81 1016.8
20260509153902 70 213 5.0 7.0 0.00 0.00 0.00 82 1016.9
20260509153359 69 217 0.0 5.0 0.00 0.00 0.00 83 1016.7
20260509152856 69 225 5.0 5.0 0.00 0.00 0.00 83 1016.7
20260509152352 69 240 4.0 6.0 0.00 0.00 0.00 84 1016.6
20260509151849 69 216 6.0 9.0 0.00 0.00 0.00 84 1016.8
20260509151345 69 180 0.0 5.0 0.00 0.00 0.00 83 1016.7
20260509150844 69 217 4.0 6.0 0.00 0.00 0.00 84 1016.9
20260509150341 69 246 3.0 8.0 0.00 0.00 0.00 84 1016.8
20260509145838 69 270 3.0 9.0 0.00 0.00 0.00 85 1017.1
20260509145333 68 272 4.0 6.0 0.00 0.00 0.00 84 1017.2
20260509144830 68 248 5.0 9.0 0.00 0.00 0.00 85 1017.0
20260509144327 69 280 4.0 5.0 0.00 0.00 0.00 85 1017.1
20260509143823 68 266 5.0 6.0 0.00 0.00 0.00 85 1017.1
20260509143321 68 288 4.0 7.0 0.00 0.00 0.00 86 1017.1
20260509142817 68 216 0.0 4.0 0.00 0.00 0.00 86 1016.9
20260509142313 68 258 5.0 7.0 0.00 0.00 0.00 86 1017.1
20260509141809 68 228 4.0 7.0 0.00 0.00 0.00 87 1017.3
20260509141306 67 222 3.0 5.0 0.00 0.00 0.00 87 1017.4
20260509140803 67 219 3.0 9.0 0.00 0.00 0.00 88 1017.3
20260509140300 67 240 3.0 3.0 0.00 0.00 0.00 88 1017.5
20260509135758 67 246 1.0 4.0 0.00 0.00 0.00 88 1017.3
20260509135255 67 248 2.0 4.0 0.00 0.00 0.00 88 1017.3
20260509134752 67 239 5.0 6.0 0.00 0.00 0.00 88 1017.2
20260509134249 67 209 1.0 5.0 0.00 0.00 0.00 89 1017.6
20260509133746 67 154 0.0 4.0 0.00 0.00 0.00 89 1017.3
20260509133243 66 189 5.0 5.0 0.00 0.00 0.00 89 1017.2
20260509132742 67 311 0.0 6.0 0.00 0.00 0.00 90 1017.3
20260509132240 66 222 3.0 6.0 0.00 0.00 0.00 90 1017.4
20260509131736 66 201 4.0 6.0 0.00 0.00 0.00 90 1017.3
20260509131233 66 200 1.0 4.0 0.00 0.00 0.00 91 1017.1
20260509130729 65 240 4.0 7.0 0.00 0.00 0.00 92 1017.4
20260509130225 66 225 0.0 5.0 0.00 0.00 0.00 93 1017.5
20260509125721 65 199 6.0 6.0 0.00 0.00 0.00 93 1017.2
20260509125219 65 180 2.0 7.0 0.00 0.00 0.00 94 1017.1
20260509124715 65 232 2.0 5.0 0.00 0.00 0.00 95 1016.9
20260509124212 64 185 1.0 6.0 0.00 0.00 0.00 95 1016.7
20260509123710 64 154 3.0 8.0 0.00 0.00 0.00 96 1016.6
20260509123207 64 208 4.0 7.0 0.00 0.00 0.00 96 1016.9
20260509122702 64 194 3.0 8.0 0.00 0.00 0.00 96 1016.9
20260509122200 63 198 2.0 7.0 0.00 0.00 0.00 97 1017.1
20260509121656 63 180 2.0 4.0 0.00 0.00 0.00 97 1017.1
20260509121154 63 198 5.0 5.0 0.00 0.00 0.00 97 1017.2
20260509120652 63 188 3.0 4.0 0.00 0.00 0.00 98 1017.2
20260509120149 63 187 1.0 3.0 0.00 0.00 0.00 98 1017.4
20260509115647 63 15 0.0 2.0 0.00 0.00 0.00 99 1017.1
20260509115144 62 200 0.0 2.0 0.00 0.00 0.00 99 1017.2
20260509114642 62 151 0.0 2.0 0.00 0.00 0.00 99 1017.3
20260509114141 62 90 0.0 2.0 0.00 0.00 0.00 99 1017.1
20260509113639 61 74 0.0 1.0 0.00 0.00 0.00 99 1017.3
20260509113136 61 66 1.0 2.0 0.00 0.00 0.00 99 1017.4
20260509112632 61 90 0.0 1.0 0.00 0.00 0.00 99 1017.5
20260509112130 61 75 0.0 0.0 0.00 0.00 0.00 99 1017.5
20260509111627 60 75 0.0 0.0 0.00 0.00 0.00 99 1017.4
20260509111123 61 81 0.0 0.0 0.00 0.00 0.00 99 1017.5
20260509110621 60 81 0.0 0.0 0.00 0.00 0.00 99 1017.2
20260509110118 60 114 0.0 0.0 0.00 0.00 0.00 99 1017.2
20260509105616 60 114 1.0 1.0 0.00 0.00 0.00 99 1017.1
20260509105113 60 157 0.0 0.0 0.00 0.00 0.00 99 1017.3
20260509104610 60 157 0.0 0.0 0.00 0.00 0.00 99 1016.9
20260509104108 60 157 0.0 0.0 0.00 0.00 0.00 98 1017.0
20260509103604 59 157 0.0 0.0 0.00 0.00 0.00 98 1017.0
20260509103102 60 157 0.0 0.0 0.00 0.00 0.00 98 1017.0
20260509102559 60 157 0.0 0.0 0.00 0.00 0.00 98 1016.8
20260509102056 60 0 0.0 0.0 0.00 0.00 0.00 98 1016.7
20260509101552 59 0 0.0 0.0 0.00 0.00 0.00 98 1016.8
20260509101049 59 0 0.0 0.0 0.00 0.00 0.00 98 1016.7
20260509100546 60 0 0.0 1.0 0.00 0.00 0.00 98 1016.9
20260509100044 59 8 0.0 0.0 0.00 0.00 0.00 98 1016.7
20260509095540 60 8 0.0 0.0 0.00 0.00 0.00 98 1016.6
20260509095038 60 8 0.0 0.0 0.00 0.00 0.00 98 1016.7
20260509094534 60 8 0.0 0.0 0.00 0.00 0.00 98 1016.8
20260509094031 60 188 0.0 0.0 0.00 0.00 0.00 98 1016.4
20260509093530 60 188 0.0 0.0 0.00 0.00 0.00 98 1016.3
20260509093027 60 165 0.0 0.0 0.00 0.00 0.00 98 1016.1
20260509092525 60 165 0.0 0.0 0.00 0.00 0.00 97 1016.1
20260509092023 60 165 0.0 0.0 0.00 0.00 0.00 97 1015.9
20260509091520 60 165 1.0 2.0 0.00 0.00 0.00 97 1015.9
20260509091016 60 188 0.0 1.0 0.00 0.00 0.00 97 1015.9
20260509090514 60 145 0.0 1.0 0.00 0.00 0.00 97 1016.1
20260509090012 60 90 0.0 0.0 0.00 0.00 0.00 97 1016.2
20260509085508 61 90 0.0 1.0 0.00 0.00 0.00 97 1016.3
20260509085004 60 120 0.0 1.0 0.00 0.00 0.00 97 1016.0
20260509084502 61 151 0.0 1.0 0.00 0.00 0.00 96 1016.1
20260509083959 60 154 0.0 2.0 0.00 0.00 0.00 96 1016.0
20260509083456 60 81 0.0 2.0 0.00 0.00 0.00 96 1016.2
20260509082952 61 151 1.0 2.0 0.00 0.00 0.00 96 1016.2
20260509082450 60 98 0.0 1.0 0.00 0.00 0.00 95 1016.2
20260509081947 61 90 0.0 0.0 0.00 0.00 0.00 95 1016.2
20260509081444 61 81 0.0 0.0 0.00 0.00 0.00 95 1016.2
20260509080941 60 81 0.0 0.0 0.00 0.00 0.00 95 1016.2
20260509080439 61 74 0.0 1.0 0.00 0.00 0.00 95 1016.0
20260509075937 61 90 0.0 1.0 0.00 0.00 0.00 95 1016.0
20260509075434 61 180 0.0 0.0 0.00 0.00 0.00 94 1016.5
20260509074932 61 98 0.0 1.0 0.00 0.00 0.00 94 1016.3
20260509074429 61 82 0.0 0.0 0.00 0.00 0.00 94 1016.5
20260509073925 61 81 0.0 1.0 0.00 0.00 0.00 94 1016.0
20260509073422 61 82 0.0 0.0 0.00 0.00 0.00 93 1016.3
20260509072918 61 175 0.0 0.0 0.00 0.00 0.00 93 1016.4
20260509072415 61 165 0.0 1.0 0.00 0.00 0.00 93 1016.4
20260509071911 61 99 0.0 0.0 0.00 0.00 0.00 93 1016.5
20260509071408 61 99 0.0 0.0 0.00 0.00 0.00 92 1016.4